Weather History for KCEZ - April, 2012

Change the Weather History Date:

Saturday, April 7, 2012

  Actual Average Record
Temperature  
Mean Temperature 41 °F 45 °F  
Max Temperature 66 °F 62 °F 73 °F (2005)
Min Temperature 15 °F 28 °F 15 °F (2012)
Degree Days  
Heating Degree Days 24 20  
Month to date heating degree days 143 148  
Since 1 July heating degree days 5408 5678  
Cooling Degree Days 0 0  
Month to date cooling degree days 0 0  
Year to date cooling degree days 0 0  
Moisture  
Dew Point 2 °F    
Average Humidity 34    
Maximum Humidity 61    
Minimum Humidity 6    
Precipitation  
Precipitation 0.00 in 0.04 in 0.25 in (2004)
Month to date precipitation T 0.25  
Year to date precipitation 2.21 3.33  
Sea Level Pressure  
Sea Level Pressure 30.26 in    
Wind  
Wind Speed 6 mph (East)    
Max Wind Speed 15 mph    
Max Gust Speed 21 mph    
Visibility 10 miles    
Events      
T = Trace of Precipitation, MM = Missing Value Source: NWS Daily Summary

Daily Weather History Graph

Daily Weather History Graph

Search for Another Location

Airport or City:

Trip Planner

Search our weather history database for the weather conditions in past years. The results will help you decide how hot, cold, wet, or windy it might be!

Date:

Astronomy

Apr. 07, 2012 Rise Set
Actual Time 6:50 AM MDT 7:43 PM MDT
Civil Twilight 6:23 AM MDT 8:09 PM MDT
Nautical Twilight 5:52 AM MDT 8:41 PM MDT
Astronomical Twilight 5:20 AM MDT 9:13 PM MDT
Moon 9:17 PM MDT (4/7) 7:06 AM MDT (4/7)
Length of Visible Light 13h 45m
Length of Day
12h 52m
Full, 99% of the Moon is Illuminated
Apr 7
Full
Apr 13
Last Quarter
Apr 21
New
Apr 29
First Quarter
May 5
Full

Hourly Weather History & Observations

Time (MDT) Temp. Windchill Dew Point Humidity Pressure Visibility Wind Dir Wind Speed Gust Speed Precip Events Conditions
1:53 AM 21.0 °F - 1.9 °F 44% 30.21 in 10.0 mi Calm Calm - N/A   Clear
2:53 AM 24.1 °F 16.0 °F 5.0 °F 44% 30.20 in 10.0 mi ENE 6.9 mph - N/A   Clear
3:53 AM 19.0 °F 10.0 °F 5.0 °F 54% 30.23 in 10.0 mi ENE 6.9 mph - N/A   Clear
4:53 AM 18.0 °F 7.7 °F 5.0 °F 57% 30.25 in 10.0 mi ENE 8.1 mph - N/A   Clear
5:53 AM 16.0 °F 6.3 °F 5.0 °F 62% 30.27 in 10.0 mi NE 6.9 mph - N/A   Clear
6:53 AM 16.0 °F 6.3 °F 3.0 °F 57% 30.30 in 10.0 mi East 6.9 mph - N/A   Clear
7:53 AM 23.0 °F 13.9 °F 5.0 °F 46% 30.32 in 10.0 mi ENE 8.1 mph - N/A   Clear
8:53 AM 37.0 °F 33.3 °F 6.1 °F 28% 30.29 in 10.0 mi NE 4.6 mph - N/A   Clear
9:53 AM 46.0 °F 43.1 °F 1.0 °F 16% 30.30 in 10.0 mi NE 5.8 mph - N/A   Clear
10:53 AM 51.1 °F - 1.0 °F 13% 30.30 in 10.0 mi Calm Calm - N/A   Clear
11:53 AM 55.0 °F - 1.9 °F 12% 30.28 in 10.0 mi Calm Calm - N/A   Clear
12:53 PM 60.1 °F - -8.0 °F 6% 30.25 in 10.0 mi NNW 4.6 mph - N/A   Clear
1:53 PM 62.1 °F - -2.9 °F 7% 30.25 in 10.0 mi SW 8.1 mph - N/A   Clear
2:53 PM 63.0 °F - -0.0 °F 8% 30.22 in 10.0 mi SW 11.5 mph 18.4 mph N/A   Clear
3:53 PM 64.9 °F - 3.0 °F 9% 30.22 in 10.0 mi South 11.5 mph - N/A   Clear
4:53 PM 64.9 °F - -0.0 °F 7% 30.21 in 10.0 mi SSW 9.2 mph - N/A   Clear
5:53 PM 64.0 °F - -2.0 °F 7% 30.22 in 10.0 mi SW 11.5 mph - N/A   Clear
6:53 PM 60.1 °F - 1.0 °F 9% 30.25 in 10.0 mi SSW 8.1 mph - N/A   Clear
7:53 PM 48.9 °F - 1.0 °F 14% 30.26 in 10.0 mi SSW 4.6 mph - N/A   Clear
8:53 PM 37.0 °F 34.5 °F 5.0 °F 26% 30.27 in 10.0 mi ESE 3.5 mph - N/A   Clear
9:53 PM 36.0 °F 28.5 °F 6.1 °F 29% 30.26 in 10.0 mi NE 10.4 mph - N/A   Clear
10:53 PM 33.1 °F 30.0 °F 5.0 °F 31% 30.27 in 10.0 mi ENE 3.5 mph - N/A   Clear
11:53 PM 28.0 °F 20.8 °F 5.0 °F 38% 30.28 in 10.0 mi ENE 6.9 mph - N/A   Clear